EAG5674 SCEL-SBGL

Flight info

Callsign EAG5674
Flight time 3h 16m
Altitude 23000
Route NEBEG7C NEBEG A307 ESITO/N0439F330 UT652 USVET/N0444F350 UT652 SIKOB UM400 KOLBI
Aircraft B738/M-SDE2E3FGHIRWXY/LB1

Departure

Time 2026-05-05 21:03
Airport Comodoro Arturo Merino Benítez International Airport (SCEL)

Arrival

Time 2026-05-06 00:19
Airport Rio Galeão – Tom Jobim International Airport (SBGL)
Time Latitude Longitude Altitude Speed Heading
2026-05-05 20:24 -33.39937 -70.79800 1563 ft 0 kts 177°
2026-05-05 20:50 -33.39934 -70.79801 1563 ft 3 kts 177°
2026-05-05 20:50 -33.39907 -70.79802 1563 ft 4 kts 176°
2026-05-05 20:50 -33.39882 -70.79804 1563 ft 3 kts 176°
2026-05-05 20:50 -33.39861 -70.79800 1563 ft 4 kts 232°
2026-05-05 20:51 -33.39856 -70.79773 1563 ft 4 kts 274°
2026-05-05 20:51 -33.39857 -70.79744 1563 ft 1 kts 267°
2026-05-05 20:55 -33.39857 -70.79745 1563 ft 1 kts 267°
2026-05-05 20:55 -33.39858 -70.79773 1563 ft 6 kts 267°
2026-05-05 20:55 -33.39860 -70.79818 1563 ft 7 kts 267°
2026-05-05 20:56 -33.39847 -70.79894 1563 ft 11 kts 275°
2026-05-05 20:56 -33.39844 -70.79988 1563 ft 11 kts 283°
2026-05-05 20:56 -33.39781 -70.80029 1563 ft 13 kts 355°
2026-05-05 20:56 -33.39644 -70.80037 1563 ft 25 kts 356°
2026-05-05 20:57 -33.39479 -70.80047 1563 ft 23 kts 357°
2026-05-05 20:57 -33.39319 -70.80055 1563 ft 23 kts 358°
2026-05-05 20:57 -33.39157 -70.80063 1563 ft 24 kts 358°
2026-05-05 20:57 -33.38982 -70.80075 1563 ft 28 kts 358°
2026-05-05 20:58 -33.38759 -70.80088 1563 ft 34 kts 357°
2026-05-05 20:58 -33.38518 -70.80100 1563 ft 35 kts 357°
2026-05-05 20:58 -33.38269 -70.80117 1563 ft 36 kts 357°
2026-05-05 20:58 -33.38014 -70.80130 1563 ft 37 kts 356°
2026-05-05 20:59 -33.37754 -70.80143 1563 ft 37 kts 356°
2026-05-05 20:59 -33.37503 -70.80155 1563 ft 36 kts 357°
2026-05-05 20:59 -33.37263 -70.80168 1563 ft 32 kts 356°
2026-05-05 20:59 -33.37135 -70.80190 1563 ft 12 kts 321°
2026-05-05 21:00 -33.37104 -70.80269 1563 ft 8 kts 269°
2026-05-05 21:00 -33.37105 -70.80298 1563 ft 3 kts 266°
2026-05-05 21:00 -33.37106 -70.80322 1563 ft 3 kts 266°
2026-05-05 21:00 -33.37114 -70.80339 1563 ft 0 kts 217°
2026-05-05 21:01 -33.37116 -70.80341 1563 ft 2 kts 217°
2026-05-05 21:01 -33.37143 -70.80362 1563 ft 9 kts 206°
2026-05-05 21:02 -33.37307 -70.80368 1563 ft 50 kts 179°
2026-05-05 21:02 -33.37853 -70.80340 1563 ft 106 kts 178°
2026-05-05 21:02 -33.38755 -70.80291 1566 ft 152 kts 177°
2026-05-05 21:02 -33.39895 -70.80233 1874 ft 171 kts 177°
2026-05-05 21:03 -33.41138 -70.80169 2349 ft 187 kts 178°
2026-05-05 21:03 -33.42461 -70.80081 2832 ft 192 kts 179°
2026-05-05 21:03 -33.43795 -70.80009 3383 ft 193 kts 179°
2026-05-05 21:03 -33.45165 -70.79937 3800 ft 209 kts 178°
2026-05-05 21:04 -33.46705 -70.79855 4038 ft 232 kts 178°
2026-05-05 21:04 -33.48410 -70.79766 4328 ft 256 kts 176°
2026-05-05 21:04 -33.50268 -70.79666 4677 ft 277 kts 176°
2026-05-05 21:04 -33.52231 -70.79561 5321 ft 286 kts 176°
2026-05-05 21:05 -33.54243 -70.79438 6036 ft 292 kts 174°
2026-05-05 21:05 -33.56285 -70.79220 6731 ft 298 kts 172°
2026-05-05 21:05 -33.58360 -70.78939 7473 ft 301 kts 172°
2026-05-05 21:05 -33.60449 -70.78660 8152 ft 306 kts 173°
2026-05-05 21:06 -33.62563 -70.78388 8803 ft 311 kts 173°
2026-05-05 21:06 -33.64725 -70.78117 9479 ft 315 kts 174°
2026-05-05 21:06 -33.66919 -70.77848 10165 ft 318 kts 175°
2026-05-05 21:06 -33.69141 -70.77577 10710 ft 325 kts 175°
2026-05-05 21:07 -33.71439 -70.77298 11093 ft 339 kts 175°
2026-05-05 21:07 -33.73843 -70.77006 11321 ft 356 kts 175°
2026-05-05 21:07 -33.76364 -70.76678 11532 ft 373 kts 173°
2026-05-05 21:07 -33.78897 -70.75752 11719 ft 390 kts 155°
2026-05-05 21:08 -33.81173 -70.73888 11897 ft 404 kts 137°
2026-05-05 21:08 -33.82959 -70.71239 12060 ft 415 kts 120°
2026-05-05 21:08 -33.84086 -70.68012 12209 ft 424 kts 103°
2026-05-05 21:08 -33.84425 -70.64515 12445 ft 428 kts 86°
2026-05-05 21:09 -33.83921 -70.60970 12922 ft 422 kts 69°
2026-05-05 21:09 -33.82695 -70.57831 13747 ft 410 kts 59°
2026-05-05 21:09 -33.81509 -70.54718 14386 ft 412 kts 66°
2026-05-05 21:09 -33.80693 -70.51445 14846 ft 417 kts 74°
2026-05-05 21:10 -33.80309 -70.47938 15247 ft 425 kts 86°
2026-05-05 21:10 -33.80474 -70.44359 15647 ft 431 kts 91°
2026-05-05 21:10 -33.80613 -70.40741 16034 ft 434 kts 90°
2026-05-05 21:10 -33.80745 -70.37098 16411 ft 438 kts 90°
2026-05-05 21:11 -33.80889 -70.33418 16780 ft 442 kts 90°
2026-05-05 21:11 -33.81037 -70.29759 17155 ft 445 kts 90°
2026-05-05 21:11 -33.81183 -70.26022 17520 ft 448 kts 90°
2026-05-05 21:11 -33.81199 -70.22264 17857 ft 451 kts 86°
2026-05-05 21:12 -33.81071 -70.18483 18168 ft 455 kts 84°
2026-05-05 21:12 -33.80890 -70.14664 18470 ft 459 kts 85°
2026-05-05 21:12 -33.80736 -70.10826 18883 ft 459 kts 85°
2026-05-05 21:12 -33.80597 -70.07021 19669 ft 448 kts 85°
2026-05-05 21:13 -33.80466 -70.03336 20633 ft 435 kts 85°
2026-05-05 21:13 -33.80339 -69.99729 21476 ft 426 kts 85°
2026-05-05 21:13 -33.80215 -69.96188 22012 ft 426 kts 85°
2026-05-05 21:13 -33.80090 -69.92578 22128 ft 437 kts 85°
2026-05-05 21:14 -33.80114 -69.88866 22239 ft 449 kts 91°
2026-05-05 21:14 -33.80393 -69.85090 22346 ft 459 kts 95°
2026-05-05 21:14 -33.80791 -69.81257 22507 ft 466 kts 96°
2026-05-05 21:14 -33.81207 -69.77373 22782 ft 469 kts 96°
2026-05-05 21:15 -33.81604 -69.73516 22874 ft 472 kts 96°
2026-05-05 21:15 -33.81998 -69.69573 22880 ft 480 kts 96°
2026-05-05 21:15 -33.82396 -69.65550 22881 ft 488 kts 96°
2026-05-05 21:15 -33.82796 -69.61453 22885 ft 496 kts 96°
2026-05-05 21:16 -33.83196 -69.57312 22948 ft 502 kts 96°
2026-05-05 21:16 -33.83602 -69.53120 23005 ft 507 kts 96°
2026-05-05 21:16 -33.84013 -69.48889 23273 ft 506 kts 96°
2026-05-05 21:16 -33.84442 -69.44707 23623 ft 504 kts 96°
2026-05-05 21:17 -33.84861 -69.40517 23806 ft 506 kts 96°
2026-05-05 21:17 -33.85274 -69.36293 23969 ft 509 kts 96°
2026-05-05 21:17 -33.85683 -69.32059 24122 ft 511 kts 96°
2026-05-05 21:17 -33.86093 -69.27802 24295 ft 513 kts 96°
2026-05-05 21:18 -33.86510 -69.23526 24462 ft 515 kts 97°
2026-05-05 21:18 -33.86937 -69.19240 24623 ft 517 kts 96°
2026-05-05 21:18 -33.87209 -69.16404 24727 ft 518 kts 96°
2026-05-05 21:18 -33.87751 -69.10606 24934 ft 521 kts 96°
2026-05-05 21:19 -33.88153 -69.06264 25089 ft 523 kts 96°
2026-05-05 21:19 -33.88554 -69.01904 25240 ft 525 kts 96°
2026-05-05 21:19 -33.88952 -68.97569 25384 ft 527 kts 96°
2026-05-05 21:19 -33.89331 -68.93180 25524 ft 528 kts 93°
2026-05-05 21:20 -33.89310 -68.88763 25662 ft 528 kts 84°
2026-05-05 21:20 -33.88750 -68.84411 25808 ft 526 kts 74°
2026-05-05 21:20 -33.87692 -68.80204 25956 ft 523 kts 66°
2026-05-05 21:20 -33.86254 -68.76188 26081 ft 522 kts 60°
2026-05-05 21:21 -33.84631 -68.72331 26232 ft 522 kts 58°
2026-05-05 21:21 -33.82955 -68.68450 26368 ft 524 kts 58°
2026-05-05 21:21 -33.81844 -68.65801 26483 ft 525 kts 58°
2026-05-05 21:21 -33.80231 -68.61857 26668 ft 526 kts 59°
2026-05-05 21:22 -33.78635 -68.57898 26815 ft 528 kts 59°
2026-05-05 21:22 -33.77058 -68.53953 26955 ft 530 kts 59°
2026-05-05 21:22 -33.75462 -68.49947 27086 ft 531 kts 59°
2026-05-05 21:22 -33.73881 -68.45911 27161 ft 534 kts 60°
2026-05-05 21:23 -33.72301 -68.41861 27286 ft 535 kts 60°
2026-05-05 21:23 -33.70715 -68.37822 27424 ft 536 kts 59°
2026-05-05 21:23 -33.69114 -68.33764 27538 ft 537 kts 59°
2026-05-05 21:23 -33.67510 -68.29706 27639 ft 538 kts 59°
2026-05-05 21:24 -33.65900 -68.25642 27745 ft 539 kts 59°
2026-05-05 21:24 -33.64287 -68.21578 27914 ft 539 kts 59°
2026-05-05 21:24 -33.62695 -68.17571 28103 ft 538 kts 59°
2026-05-05 21:24 -33.61086 -68.13528 28285 ft 538 kts 59°
2026-05-05 21:25 -33.59470 -68.09477 28550 ft 535 kts 59°
2026-05-05 21:25 -33.57871 -68.05468 28878 ft 531 kts 59°
2026-05-05 21:25 -33.56276 -68.01472 28990 ft 533 kts 59°
2026-05-05 21:25 -33.54669 -67.97454 29093 ft 534 kts 58°
2026-05-05 21:26 -33.53063 -67.93443 29280 ft 534 kts 58°
2026-05-05 21:26 -33.51453 -67.89426 29450 ft 534 kts 58°
2026-05-05 21:26 -33.49843 -67.85414 29601 ft 534 kts 58°
2026-05-05 21:26 -33.48242 -67.81430 29757 ft 535 kts 58°
2026-05-05 21:27 -33.46632 -67.77426 29926 ft 535 kts 58°
2026-05-05 21:27 -33.45012 -67.73403 30088 ft 535 kts 58°
2026-05-05 21:27 -33.43393 -67.69387 30300 ft 534 kts 58°
2026-05-05 21:27 -33.41779 -67.65388 30461 ft 535 kts 58°
2026-05-05 21:28 -33.40152 -67.61362 30629 ft 535 kts 58°
2026-05-05 21:28 -33.38547 -67.57340 30771 ft 536 kts 58°
2026-05-05 21:28 -33.36926 -67.53316 30928 ft 536 kts 58°
2026-05-05 21:28 -33.35300 -67.49309 31113 ft 536 kts 58°
2026-05-05 21:29 -33.33667 -67.45298 31387 ft 534 kts 58°
2026-05-05 21:29 -33.32033 -67.41293 31590 ft 535 kts 57°
2026-05-05 21:29 -33.30421 -67.37346 31790 ft 535 kts 57°
2026-05-05 21:29 -33.28787 -67.33348 31997 ft 536 kts 57°
2026-05-05 21:30 -33.27145 -67.29332 32201 ft 536 kts 57°
2026-05-05 21:30 -33.25508 -67.25323 32423 ft 536 kts 57°
2026-05-05 21:30 -33.23871 -67.21327 32718 ft 535 kts 57°
2026-05-05 21:30 -33.22228 -67.17326 32963 ft 535 kts 57°
2026-05-05 21:31 -33.20611 -67.13325 33133 ft 537 kts 57°
2026-05-05 21:31 -33.18973 -67.09306 33365 ft 537 kts 57°
2026-05-05 21:31 -33.17341 -67.05332 33630 ft 536 kts 57°
2026-05-05 21:31 -33.15679 -67.01299 33937 ft 533 kts 57°
2026-05-05 21:32 -33.14046 -66.97345 34329 ft 530 kts 57°
2026-05-05 21:32 -33.12435 -66.93447 34609 ft 529 kts 57°
2026-05-05 21:32 -33.10805 -66.89507 34853 ft 529 kts 57°
2026-05-05 21:32 -33.09171 -66.85559 34880 ft 532 kts 57°
2026-05-05 21:33 -33.05866 -66.77587 34881 ft 539 kts 57°
2026-05-05 21:33 -33.02520 -66.69555 34881 ft 541 kts 57°
2026-05-05 21:34 -32.99198 -66.61596 34881 ft 539 kts 57°
2026-05-05 21:34 -32.95849 -66.53593 34881 ft 540 kts 57°
2026-05-05 21:35 -32.92496 -66.45582 34882 ft 541 kts 57°
2026-05-05 21:35 -32.89190 -66.37528 34885 ft 541 kts 57°
2026-05-05 21:36 -32.85823 -66.29502 34888 ft 540 kts 57°
2026-05-05 21:36 -32.82473 -66.21564 34889 ft 540 kts 57°
2026-05-05 21:37 -32.79096 -66.13573 34889 ft 541 kts 57°
2026-05-05 21:37 -32.75692 -66.05595 34894 ft 540 kts 56°
2026-05-05 21:38 -32.72217 -65.97681 34897 ft 540 kts 56°
2026-05-05 21:38 -32.68744 -65.89765 34897 ft 541 kts 56°
2026-05-05 21:39 -32.65261 -65.81833 34900 ft 542 kts 56°
2026-05-05 21:39 -32.61797 -65.73956 34904 ft 541 kts 56°
2026-05-05 21:40 -32.58335 -65.65988 34902 ft 542 kts 56°
2026-05-05 21:40 -32.54852 -65.58048 34906 ft 542 kts 56°
2026-05-05 21:41 -32.51369 -65.50114 34904 ft 543 kts 56°
2026-05-05 21:41 -32.47889 -65.42206 34898 ft 544 kts 56°
2026-05-05 21:42 -32.44366 -65.34275 34899 ft 544 kts 56°
2026-05-05 21:42 -32.40837 -65.26350 34900 ft 545 kts 56°
2026-05-05 21:43 -32.37294 -65.18400 34899 ft 545 kts 56°
2026-05-05 21:43 -32.33871 -65.10439 34901 ft 546 kts 57°
2026-05-05 21:44 -32.30441 -65.02419 34901 ft 546 kts 57°
2026-05-05 21:44 -32.26998 -64.94405 34901 ft 546 kts 57°
2026-05-05 21:45 -32.23551 -64.86406 34900 ft 546 kts 57°
2026-05-05 21:45 -32.20127 -64.78409 34889 ft 547 kts 57°
2026-05-05 21:46 -32.16696 -64.70390 34869 ft 546 kts 57°
2026-05-05 21:46 -32.13254 -64.62403 34861 ft 545 kts 57°
2026-05-05 21:47 -32.09827 -64.54481 34860 ft 545 kts 57°
2026-05-05 21:47 -32.06373 -64.46518 34863 ft 544 kts 57°
2026-05-05 21:48 -32.02914 -64.38562 34869 ft 543 kts 57°
2026-05-05 21:48 -31.99489 -64.30699 34869 ft 543 kts 57°
2026-05-05 21:49 -31.96034 -64.22788 34871 ft 543 kts 57°
2026-05-05 21:49 -31.92568 -64.14866 34878 ft 542 kts 57°
2026-05-05 21:50 -31.89156 -64.07016 34879 ft 541 kts 57°
2026-05-05 21:50 -31.85692 -63.99149 34878 ft 541 kts 56°
2026-05-05 21:51 -31.82217 -63.91284 34879 ft 541 kts 56°
2026-05-05 21:51 -31.78749 -63.83444 34878 ft 541 kts 56°
2026-05-05 21:52 -31.73396 -63.71788 34878 ft 539 kts 54°
2026-05-05 21:53 -31.69764 -63.64096 34879 ft 542 kts 55°
2026-05-05 21:53 -31.66108 -63.56327 34881 ft 545 kts 56°
2026-05-05 21:54 -31.62449 -63.48556 34882 ft 543 kts 55°
2026-05-05 21:54 -31.58835 -63.40755 34883 ft 544 kts 56°
2026-05-05 21:55 -31.55178 -63.32995 34884 ft 542 kts 55°
2026-05-05 21:55 -31.51498 -63.25229 34881 ft 546 kts 56°
2026-05-05 21:56 -31.47847 -63.17533 34881 ft 548 kts 56°
2026-05-05 21:56 -31.44167 -63.09607 34883 ft 548 kts 57°
2026-05-05 21:57 -31.40605 -63.01725 34882 ft 548 kts 57°
2026-05-05 21:57 -31.37030 -62.93804 34880 ft 549 kts 57°
2026-05-05 21:58 -31.33476 -62.85954 34880 ft 549 kts 57°
2026-05-05 21:58 -31.29874 -62.78077 34878 ft 549 kts 57°
2026-05-05 21:59 -31.26264 -62.70202 34884 ft 548 kts 57°
2026-05-05 21:59 -31.22669 -62.62359 34891 ft 546 kts 57°
2026-05-05 22:00 -31.19065 -62.54529 34891 ft 548 kts 57°
2026-05-05 22:00 -31.15501 -62.46711 34892 ft 548 kts 57°
2026-05-05 22:01 -31.11896 -62.38891 34895 ft 547 kts 57°
2026-05-05 22:01 -31.08273 -62.31065 34896 ft 547 kts 57°
2026-05-05 22:02 -31.04650 -62.23252 34897 ft 547 kts 57°
2026-05-05 22:02 -31.01019 -62.15431 34898 ft 549 kts 57°
2026-05-05 22:03 -30.97372 -62.07615 34902 ft 549 kts 57°
2026-05-05 22:03 -30.93717 -61.99798 34905 ft 548 kts 57°
2026-05-05 22:04 -30.90074 -61.92014 34902 ft 546 kts 57°
2026-05-05 22:04 -30.86451 -61.84281 34904 ft 546 kts 57°
2026-05-05 22:05 -30.82942 -61.76665 34906 ft 545 kts 57°
2026-05-05 22:05 -30.79308 -61.68918 34905 ft 546 kts 57°
2026-05-05 22:06 -30.75653 -61.61170 34904 ft 545 kts 57°
2026-05-05 22:06 -30.71998 -61.53437 34905 ft 545 kts 57°
2026-05-05 22:07 -30.68962 -61.47017 34904 ft 545 kts 56°
2026-05-05 22:07 -30.65251 -61.39323 34904 ft 545 kts 56°
2026-05-05 22:08 -30.61544 -61.31643 34905 ft 544 kts 56°
2026-05-05 22:08 -30.57841 -61.23983 34904 ft 545 kts 56°
2026-05-05 22:09 -30.54143 -61.16347 34905 ft 546 kts 56°
2026-05-05 22:09 -30.50454 -61.08663 34905 ft 545 kts 56°
2026-05-05 22:10 -30.46749 -61.00979 34905 ft 545 kts 56°
2026-05-05 22:10 -30.43037 -60.93322 34905 ft 544 kts 56°
2026-05-05 22:11 -30.39332 -60.85699 34904 ft 543 kts 56°
2026-05-05 22:11 -30.35608 -60.78055 34904 ft 544 kts 56°
2026-05-05 22:12 -30.31897 -60.70411 34904 ft 544 kts 56°
2026-05-05 22:12 -30.28194 -60.62825 34905 ft 543 kts 56°
2026-05-05 22:13 -30.24458 -60.55221 34905 ft 543 kts 56°
2026-05-05 22:13 -30.20712 -60.47611 34905 ft 544 kts 56°
2026-05-05 22:14 -30.17141 -60.39884 34904 ft 547 kts 62°
2026-05-05 22:14 -30.14379 -60.31667 34905 ft 550 kts 67°
2026-05-05 22:15 -30.11772 -60.23376 34905 ft 549 kts 67°
2026-05-05 22:15 -30.09135 -60.15130 34905 ft 549 kts 67°
2026-05-05 22:16 -30.06475 -60.06869 34905 ft 549 kts 67°
2026-05-05 22:16 -30.03831 -59.98581 34906 ft 550 kts 67°
2026-05-05 22:17 -30.01207 -59.90378 34905 ft 545 kts 67°
2026-05-05 22:17 -29.98568 -59.82191 34905 ft 544 kts 67°
2026-05-05 22:18 -29.95916 -59.74003 34905 ft 544 kts 68°
2026-05-05 22:18 -29.93260 -59.65823 34905 ft 544 kts 68°
2026-05-05 22:19 -29.90603 -59.57660 34905 ft 544 kts 68°
2026-05-05 22:19 -29.87932 -59.49477 34905 ft 544 kts 68°
2026-05-05 22:20 -29.85262 -59.41315 34905 ft 545 kts 68°
2026-05-05 22:20 -29.82602 -59.33202 34905 ft 545 kts 67°
2026-05-05 22:21 -29.79920 -59.25043 34906 ft 545 kts 67°
2026-05-05 22:21 -29.77254 -59.16872 34905 ft 545 kts 67°
2026-05-05 22:22 -29.74552 -59.08701 34905 ft 545 kts 67°
2026-05-05 22:22 -29.71844 -59.00552 34905 ft 545 kts 67°
2026-05-05 22:23 -29.69149 -58.92455 34905 ft 545 kts 67°
2026-05-05 22:23 -29.66475 -58.84299 34905 ft 545 kts 68°
2026-05-05 22:24 -29.63871 -58.76113 34905 ft 545 kts 68°
2026-05-05 22:24 -29.61253 -58.67933 34905 ft 545 kts 68°
2026-05-05 22:25 -29.58628 -58.59758 34905 ft 545 kts 68°
2026-05-05 22:25 -29.56017 -58.51641 34905 ft 545 kts 68°
2026-05-05 22:26 -29.53418 -58.43454 34905 ft 545 kts 68°
2026-05-05 22:26 -29.50814 -58.35265 34905 ft 545 kts 68°
2026-05-05 22:27 -29.48178 -58.27116 34905 ft 545 kts 68°
2026-05-05 22:27 -29.45523 -58.18950 34905 ft 546 kts 68°
2026-05-05 22:28 -29.42867 -58.10788 34908 ft 546 kts 68°
2026-05-05 22:28 -29.40127 -58.02710 34909 ft 546 kts 65°
2026-05-05 22:29 -29.37064 -57.94712 34909 ft 547 kts 65°
2026-05-05 22:29 -29.34094 -57.86696 34910 ft 547 kts 65°
2026-05-05 22:30 -29.31097 -57.78671 34912 ft 548 kts 65°
2026-05-05 22:30 -29.28127 -57.70738 34911 ft 547 kts 65°
2026-05-05 22:31 -29.25105 -57.62673 34918 ft 549 kts 65°
2026-05-05 22:31 -29.22208 -57.54537 34927 ft 552 kts 67°
2026-05-05 22:32 -29.19395 -57.46352 34926 ft 551 kts 67°
2026-05-05 22:32 -29.16561 -57.38192 34929 ft 552 kts 67°
2026-05-05 22:33 -29.13714 -57.30031 34930 ft 552 kts 67°
2026-05-05 22:33 -29.11372 -57.23306 34929 ft 552 kts 67°
2026-05-05 22:34 -29.08574 -57.15203 34931 ft 553 kts 67°
2026-05-05 22:34 -29.05718 -57.07016 34935 ft 554 kts 67°
2026-05-05 22:35 -29.02840 -56.98802 34956 ft 558 kts 66°
2026-05-05 22:35 -28.99994 -56.90703 34964 ft 557 kts 66°
2026-05-05 22:36 -28.97126 -56.82489 34964 ft 557 kts 66°
2026-05-05 22:36 -28.94222 -56.74273 34964 ft 557 kts 66°
2026-05-05 22:37 -28.91312 -56.66078 34964 ft 557 kts 66°
2026-05-05 22:37 -28.88402 -56.57894 34963 ft 557 kts 66°
2026-05-05 22:38 -28.85489 -56.49709 34961 ft 556 kts 66°
2026-05-05 22:38 -28.82600 -56.41524 34954 ft 554 kts 66°
2026-05-05 22:39 -28.79685 -56.33367 34962 ft 558 kts 66°
2026-05-05 22:39 -28.76734 -56.25145 34964 ft 559 kts 66°
2026-05-05 22:40 -28.73807 -56.16998 34962 ft 557 kts 66°
2026-05-05 22:40 -28.70914 -56.08795 34964 ft 559 kts 67°
2026-05-05 22:41 -28.68045 -56.00538 34970 ft 560 kts 68°
2026-05-05 22:41 -28.65222 -55.92332 34981 ft 557 kts 68°
2026-05-05 22:42 -28.62344 -55.84085 34988 ft 560 kts 67°
2026-05-05 22:42 -28.59454 -55.75851 34989 ft 560 kts 67°
2026-05-05 22:43 -28.56563 -55.67622 34988 ft 558 kts 67°
2026-05-05 22:43 -28.53698 -55.59482 34990 ft 559 kts 67°
2026-05-05 22:44 -28.50782 -55.51239 34988 ft 559 kts 67°
2026-05-05 22:44 -28.47887 -55.43070 34989 ft 559 kts 67°
2026-05-05 22:45 -28.44970 -55.34853 34994 ft 559 kts 67°
2026-05-05 22:45 -28.42123 -55.26844 34993 ft 560 kts 68°
2026-05-05 22:46 -28.39233 -55.18614 34993 ft 560 kts 68°
2026-05-05 22:46 -28.36318 -55.10409 34993 ft 560 kts 68°
2026-05-05 22:47 -28.33427 -55.02240 34991 ft 561 kts 68°
2026-05-05 22:47 -28.30499 -54.94047 34991 ft 560 kts 68°
2026-05-05 22:48 -28.27555 -54.85860 34996 ft 560 kts 68°
2026-05-05 22:48 -28.24611 -54.77687 34994 ft 560 kts 68°
2026-05-05 22:49 -28.21667 -54.69521 34995 ft 560 kts 68°
2026-05-05 22:49 -28.18906 -54.61904 34995 ft 560 kts 68°
2026-05-05 22:50 -28.16125 -54.54253 34992 ft 560 kts 68°
2026-05-05 22:50 -28.14070 -54.48611 34993 ft 560 kts 68°
2026-05-05 22:51 -28.12413 -54.44065 34997 ft 560 kts 68°
2026-05-05 22:51 -28.09421 -54.35863 35005 ft 560 kts 69°
2026-05-05 22:52 -28.06983 -54.29081 34997 ft 560 kts 68°
2026-05-05 22:52 -28.04024 -54.20933 34988 ft 559 kts 68°
2026-05-05 22:53 -28.01044 -54.12774 34988 ft 560 kts 68°
2026-05-05 22:53 -27.98064 -54.04636 34988 ft 560 kts 68°
2026-05-05 22:54 -27.95072 -53.96488 34989 ft 560 kts 68°
2026-05-05 22:54 -27.92079 -53.88356 34989 ft 560 kts 68°
2026-05-05 22:55 -27.89097 -53.80268 34990 ft 560 kts 68°
2026-05-05 22:55 -27.86089 -53.72129 34990 ft 560 kts 68°
2026-05-05 22:56 -27.83084 -53.64014 34986 ft 559 kts 68°
2026-05-05 22:56 -27.80073 -53.55903 34986 ft 559 kts 68°
2026-05-05 22:57 -27.77076 -53.47843 34987 ft 559 kts 68°
2026-05-05 22:57 -27.74055 -53.39736 34994 ft 559 kts 68°
2026-05-05 22:58 -27.71042 -53.31615 34999 ft 559 kts 68°
2026-05-05 22:58 -27.68016 -53.23521 35005 ft 559 kts 68°
2026-05-05 22:59 -27.65005 -53.15521 35006 ft 559 kts 68°
2026-05-05 22:59 -27.61956 -53.07429 35005 ft 559 kts 68°
2026-05-05 23:00 -27.57394 -52.95301 35009 ft 559 kts 68°
2026-05-05 23:00 -27.54340 -52.87226 35011 ft 559 kts 67°
2026-05-05 23:01 -27.51298 -52.79171 35012 ft 559 kts 68°
2026-05-05 23:01 -27.48235 -52.71106 35012 ft 559 kts 67°
2026-05-05 23:02 -27.45174 -52.63080 35014 ft 559 kts 67°
2026-05-05 23:02 -27.42103 -52.55033 35015 ft 559 kts 67°
2026-05-05 23:03 -27.39020 -52.46983 35015 ft 559 kts 67°
2026-05-05 23:03 -27.35936 -52.38946 35015 ft 559 kts 67°
2026-05-05 23:04 -27.32886 -52.30898 35015 ft 559 kts 67°
2026-05-05 23:04 -27.29803 -52.22871 35019 ft 559 kts 67°
2026-05-05 23:05 -27.26702 -52.14837 35023 ft 559 kts 67°
2026-05-05 23:05 -27.23605 -52.06819 35021 ft 559 kts 67°
2026-05-05 23:06 -27.20523 -51.98848 35032 ft 560 kts 67°
2026-05-05 23:06 -27.17404 -51.90820 35051 ft 560 kts 67°
2026-05-05 23:07 -27.14276 -51.82796 35070 ft 560 kts 67°
2026-05-05 23:07 -27.11139 -51.74779 35118 ft 562 kts 68°
2026-05-05 23:08 -27.07990 -51.66741 35150 ft 562 kts 68°
2026-05-05 23:08 -27.04841 -51.58721 35134 ft 561 kts 67°
2026-05-05 23:09 -27.01723 -51.50751 35142 ft 562 kts 68°
2026-05-05 23:09 -26.98586 -51.42706 35158 ft 562 kts 68°
2026-05-05 23:10 -26.95434 -51.34681 35169 ft 562 kts 68°
2026-05-05 23:10 -26.92276 -51.26671 35171 ft 562 kts 68°
2026-05-05 23:11 -26.89100 -51.18629 35171 ft 562 kts 68°
2026-05-05 23:11 -26.85967 -51.10661 35171 ft 562 kts 68°
2026-05-05 23:12 -26.82790 -51.02655 35171 ft 562 kts 68°
2026-05-05 23:12 -26.79606 -50.94668 35171 ft 562 kts 68°
2026-05-05 23:13 -26.76416 -50.86675 35171 ft 562 kts 68°
2026-05-05 23:13 -26.73250 -50.78715 35171 ft 562 kts 68°
2026-05-05 23:14 -26.70051 -50.70730 35171 ft 562 kts 68°
2026-05-05 23:14 -26.66838 -50.62742 35171 ft 562 kts 67°
2026-05-05 23:15 -26.63626 -50.54766 35171 ft 562 kts 68°
2026-05-05 23:15 -26.60488 -50.46820 35171 ft 562 kts 68°
2026-05-05 23:16 -26.57321 -50.38830 35171 ft 562 kts 68°
2026-05-05 23:16 -26.54120 -50.30850 35171 ft 562 kts 67°
2026-05-05 23:17 -26.50883 -50.22901 35171 ft 562 kts 67°
2026-05-05 23:17 -26.47641 -50.14938 35171 ft 562 kts 67°
2026-05-05 23:18 -26.44456 -50.07016 35171 ft 562 kts 67°
2026-05-05 23:18 -26.41215 -49.99062 35171 ft 562 kts 67°
2026-05-05 23:19 -26.37968 -49.91131 35195 ft 560 kts 68°
2026-05-05 23:19 -26.34733 -49.83234 35213 ft 560 kts 67°
2026-05-05 23:20 -26.31514 -49.75294 35221 ft 560 kts 68°
2026-05-05 23:20 -26.28315 -49.67433 35223 ft 560 kts 68°
2026-05-05 23:21 -26.25088 -49.59523 35223 ft 560 kts 68°
2026-05-05 23:21 -26.21857 -49.51616 35224 ft 560 kts 67°
2026-05-05 23:22 -26.18602 -49.43722 35224 ft 560 kts 67°
2026-05-05 23:22 -26.15344 -49.35843 35232 ft 559 kts 68°
2026-05-05 23:23 -26.12108 -49.28041 35237 ft 559 kts 68°
2026-05-05 23:23 -26.08860 -49.20173 35234 ft 559 kts 68°
2026-05-05 23:24 -26.05598 -49.12308 35231 ft 559 kts 68°
2026-05-05 23:24 -26.02330 -49.04447 35234 ft 559 kts 68°
2026-05-05 23:25 -25.99070 -48.96590 35236 ft 559 kts 67°
2026-05-05 23:25 -25.95802 -48.88748 35229 ft 560 kts 67°
2026-05-05 23:26 -25.92545 -48.80933 35230 ft 559 kts 67°
2026-05-05 23:26 -25.89265 -48.73093 35224 ft 559 kts 68°
2026-05-05 23:27 -25.85979 -48.65269 35216 ft 559 kts 68°
2026-05-05 23:27 -25.82677 -48.57428 35209 ft 559 kts 68°
2026-05-05 23:28 -25.79373 -48.49595 35204 ft 560 kts 68°
2026-05-05 23:28 -25.76076 -48.41770 35200 ft 559 kts 68°
2026-05-05 23:29 -25.72828 -48.33983 35196 ft 559 kts 68°
2026-05-05 23:29 -25.69518 -48.26167 35203 ft 560 kts 67°
2026-05-05 23:30 -25.66759 -48.19671 35207 ft 560 kts 67°
2026-05-05 23:30 -25.62870 -48.10520 35202 ft 560 kts 67°
2026-05-05 23:31 -25.59558 -48.02704 35204 ft 560 kts 67°
2026-05-05 23:31 -25.56226 -47.94907 35209 ft 560 kts 67°
2026-05-05 23:32 -25.52904 -47.87148 35210 ft 560 kts 67°
2026-05-05 23:32 -25.49572 -47.79352 35213 ft 560 kts 67°
2026-05-05 23:33 -25.46237 -47.71571 35216 ft 559 kts 67°
2026-05-05 23:33 -25.42882 -47.63775 35216 ft 560 kts 67°
2026-05-05 23:34 -25.39536 -47.56004 35218 ft 560 kts 67°
2026-05-05 23:34 -25.36176 -47.48244 35221 ft 560 kts 67°
2026-05-05 23:35 -25.33049 -47.41030 35220 ft 560 kts 67°
2026-05-05 23:35 -25.29683 -47.33276 35223 ft 559 kts 67°
2026-05-05 23:36 -25.26914 -47.26833 35230 ft 559 kts 67°
2026-05-05 23:36 -25.23561 -47.19076 35231 ft 559 kts 66°
2026-05-05 23:37 -25.19646 -47.10100 35233 ft 558 kts 66°
2026-05-05 23:37 -25.16271 -47.02374 35236 ft 558 kts 66°
2026-05-05 23:38 -25.13466 -46.95954 35238 ft 558 kts 66°
2026-05-05 23:38 -25.10055 -46.88257 35237 ft 558 kts 66°
2026-05-05 23:39 -25.06634 -46.80579 35235 ft 557 kts 66°
2026-05-05 23:39 -25.03211 -46.72911 35239 ft 556 kts 66°
2026-05-05 23:40 -24.99799 -46.65258 35255 ft 555 kts 66°
2026-05-05 23:40 -24.96373 -46.57619 35261 ft 555 kts 66°
2026-05-05 23:41 -24.92971 -46.50046 35262 ft 555 kts 66°
2026-05-05 23:41 -24.89539 -46.42419 35263 ft 555 kts 66°
2026-05-05 23:42 -24.86095 -46.34777 35263 ft 555 kts 66°
2026-05-05 23:42 -24.82687 -46.27142 35264 ft 555 kts 67°
2026-05-05 23:43 -24.79284 -46.19558 35265 ft 555 kts 67°
2026-05-05 23:43 -24.75871 -46.11985 35266 ft 550 kts 67°
2026-05-05 23:44 -24.72460 -46.04433 35266 ft 550 kts 67°
2026-05-05 23:44 -24.69046 -45.96889 35267 ft 551 kts 67°
2026-05-05 23:45 -24.65626 -45.89345 35265 ft 551 kts 66°
2026-05-05 23:45 -24.62199 -45.81800 35264 ft 551 kts 66°
2026-05-05 23:46 -24.58791 -45.74310 35248 ft 551 kts 67°
2026-05-05 23:46 -24.57068 -45.70525 35134 ft 554 kts 67°
2026-05-05 23:46 -24.55334 -45.66725 35033 ft 557 kts 66°
2026-05-05 23:47 -24.51849 -45.59116 34713 ft 556 kts 67°
2026-05-05 23:47 -24.50112 -45.55325 34465 ft 556 kts 67°
2026-05-05 23:47 -24.48371 -45.51527 34215 ft 556 kts 67°
2026-05-05 23:48 -24.46653 -45.47782 33972 ft 555 kts 67°
2026-05-05 23:48 -24.44922 -45.44014 33723 ft 554 kts 67°
2026-05-05 23:48 -24.43160 -45.40179 33470 ft 553 kts 67°
2026-05-05 23:48 -24.41428 -45.36410 33277 ft 553 kts 67°
2026-05-05 23:49 -24.37985 -45.28926 33225 ft 554 kts 67°
2026-05-05 23:49 -24.34500 -45.21363 33217 ft 555 kts 67°
2026-05-05 23:50 -24.31023 -45.13827 33231 ft 551 kts 67°
2026-05-05 23:50 -24.27579 -45.06365 33254 ft 546 kts 67°
2026-05-05 23:51 -24.24158 -44.98911 33261 ft 547 kts 67°
2026-05-05 23:51 -24.20734 -44.91480 33288 ft 545 kts 66°
2026-05-05 23:52 -24.17300 -44.84070 33305 ft 545 kts 66°
2026-05-05 23:52 -24.13862 -44.76661 33316 ft 544 kts 66°
2026-05-05 23:53 -24.10435 -44.69270 33319 ft 544 kts 67°
2026-05-05 23:53 -24.07098 -44.61899 33319 ft 544 kts 67°
2026-05-05 23:54 -24.03748 -44.54504 33310 ft 539 kts 68°
2026-05-05 23:54 -24.02111 -44.50854 32932 ft 531 kts 67°
2026-05-05 23:54 -24.00471 -44.47232 32042 ft 533 kts 67°
2026-05-05 23:55 -23.98819 -44.43603 31202 ft 534 kts 67°
2026-05-05 23:55 -23.97158 -44.39959 30349 ft 533 kts 66°
2026-05-05 23:55 -23.95502 -44.36330 29494 ft 533 kts 66°
2026-05-05 23:55 -23.93852 -44.32717 28631 ft 531 kts 66°
2026-05-05 23:56 -23.92197 -44.29094 27736 ft 530 kts 66°
2026-05-05 23:56 -23.90549 -44.25487 26817 ft 528 kts 66°
2026-05-05 23:56 -23.88928 -44.21904 26231 ft 520 kts 66°
2026-05-05 23:56 -23.87380 -44.18380 26029 ft 513 kts 66°
2026-05-05 23:57 -23.85820 -44.14857 25903 ft 515 kts 66°
2026-05-05 23:57 -23.84232 -44.11339 25785 ft 519 kts 63°
2026-05-05 23:57 -23.82168 -44.08090 25718 ft 523 kts 50°
2026-05-05 23:57 -23.79477 -44.05427 25656 ft 523 kts 36°
2026-05-05 23:58 -23.76363 -44.03522 25593 ft 515 kts 22°
2026-05-05 23:58 -23.72978 -44.02460 25575 ft 498 kts
2026-05-05 23:58 -23.69593 -44.02304 25570 ft 476 kts 354°
2026-05-05 23:58 -23.66365 -44.02702 25567 ft 457 kts 353°
2026-05-05 23:59 -23.63238 -44.02707 25561 ft 442 kts
2026-05-05 23:59 -23.60223 -44.02378 25561 ft 428 kts
2026-05-05 23:59 -23.57302 -44.02168 25559 ft 413 kts
2026-05-05 23:59 -23.54476 -44.02000 25557 ft 399 kts
2026-05-06 00:00 -23.51782 -44.01825 25554 ft 386 kts
2026-05-06 00:00 -23.49141 -44.01654 25551 ft 374 kts
2026-05-06 00:00 -23.46580 -44.01491 25549 ft 361 kts
2026-05-06 00:00 -23.44116 -44.01335 25542 ft 350 kts
2026-05-06 00:01 -23.41695 -44.01183 25300 ft 347 kts
2026-05-06 00:01 -23.39251 -44.01029 24689 ft 356 kts
2026-05-06 00:01 -23.36757 -44.00872 24246 ft 359 kts
2026-05-06 00:01 -23.34270 -44.00715 23915 ft 358 kts
2026-05-06 00:02 -23.31796 -44.00559 23690 ft 353 kts
2026-05-06 00:02 -23.29354 -44.00406 23439 ft 350 kts
2026-05-06 00:02 -23.26989 -44.00257 23345 ft 337 kts
2026-05-06 00:02 -23.24688 -44.00111 23083 ft 324 kts
2026-05-06 00:03 -23.22455 -43.99970 22622 ft 319 kts
2026-05-06 00:03 -23.20266 -43.99832 22120 ft 316 kts
2026-05-06 00:03 -23.18154 -43.99699 21634 ft 314 kts
2026-05-06 00:03 -23.15986 -43.99562 21125 ft 311 kts
2026-05-06 00:04 -23.13833 -43.99427 20622 ft 309 kts
2026-05-06 00:04 -23.11698 -43.99293 20123 ft 306 kts
2026-05-06 00:04 -23.09582 -43.99160 19625 ft 304 kts
2026-05-06 00:04 -23.07483 -43.99028 19139 ft 301 kts
2026-05-06 00:05 -23.03341 -43.98769 18190 ft 295 kts
2026-05-06 00:05 -23.01302 -43.98641 17725 ft 291 kts
2026-05-06 00:05 -22.99314 -43.98516 17271 ft 288 kts
2026-05-06 00:06 -22.97326 -43.98392 16815 ft 285 kts
2026-05-06 00:06 -22.95354 -43.98265 16362 ft 281 kts
2026-05-06 00:06 -22.93493 -43.97729 15873 ft 277 kts 28°
2026-05-06 00:06 -22.92026 -43.96441 15418 ft 271 kts 51°
2026-05-06 00:07 -22.91038 -43.94712 14909 ft 269 kts 64°
2026-05-06 00:07 -22.90289 -43.92867 14454 ft 266 kts 68°
2026-05-06 00:07 -22.89576 -43.91020 13978 ft 264 kts 67°
2026-05-06 00:07 -22.88831 -43.89207 13509 ft 262 kts 66°
2026-05-06 00:08 -22.88065 -43.87414 13040 ft 260 kts 65°
2026-05-06 00:08 -22.87295 -43.85651 12574 ft 258 kts 65°
2026-05-06 00:08 -22.86518 -43.83893 12105 ft 257 kts 65°
2026-05-06 00:08 -22.85747 -43.82158 11645 ft 254 kts 65°
2026-05-06 00:09 -22.84981 -43.80442 11179 ft 253 kts 65°
2026-05-06 00:09 -22.84216 -43.78729 10713 ft 251 kts 65°
2026-05-06 00:09 -22.83466 -43.77055 10255 ft 249 kts 65°
2026-05-06 00:09 -22.82714 -43.75374 9812 ft 247 kts 65°
2026-05-06 00:10 -22.81968 -43.73709 9508 ft 245 kts 65°
2026-05-06 00:10 -22.81247 -43.72046 9271 ft 241 kts 69°
2026-05-06 00:10 -22.80721 -43.70325 9022 ft 242 kts 76°
2026-05-06 00:10 -22.80310 -43.68518 8718 ft 250 kts 78°
2026-05-06 00:11 -22.79902 -43.66683 8404 ft 251 kts 77°
2026-05-06 00:11 -22.79482 -43.64845 8095 ft 252 kts 77°
2026-05-06 00:11 -22.79060 -43.62996 7788 ft 253 kts 77°
2026-05-06 00:11 -22.78637 -43.61168 7486 ft 253 kts 77°
2026-05-06 00:12 -22.78204 -43.59317 7182 ft 253 kts 77°
2026-05-06 00:12 -22.77771 -43.57469 6892 ft 253 kts 77°
2026-05-06 00:12 -22.77290 -43.55645 6692 ft 249 kts 72°
2026-05-06 00:12 -22.76655 -43.53918 6588 ft 241 kts 68°
2026-05-06 00:13 -22.75991 -43.52275 6578 ft 234 kts 68°
2026-05-06 00:13 -22.75346 -43.50675 6548 ft 230 kts 68°
2026-05-06 00:13 -22.74722 -43.49112 6212 ft 224 kts 68°
2026-05-06 00:13 -22.74128 -43.47618 6068 ft 208 kts 68°
2026-05-06 00:14 -22.73588 -43.46260 5958 ft 189 kts 68°
2026-05-06 00:14 -22.73080 -43.44979 5582 ft 184 kts 68°
2026-05-06 00:14 -22.73075 -43.44966 5577 ft 184 kts 68°
2026-05-06 00:15 -22.72571 -43.43699 5095 ft 186 kts 69°
2026-05-06 00:15 -22.72066 -43.42414 4650 ft 185 kts 71°
2026-05-06 00:15 -22.71911 -43.41053 4161 ft 183 kts 100°
2026-05-06 00:16 -22.72341 -43.39777 3734 ft 180 kts 118°
2026-05-06 00:16 -22.73013 -43.38639 3351 ft 179 kts 125°
2026-05-06 00:16 -22.73751 -43.37557 3157 ft 180 kts 126°
2026-05-06 00:16 -22.74504 -43.36453 2689 ft 183 kts 127°
2026-05-06 00:17 -22.75266 -43.35336 2074 ft 186 kts 126°
2026-05-06 00:17 -22.76036 -43.34219 1731 ft 182 kts 127°
2026-05-06 00:17 -22.76763 -43.33138 1511 ft 173 kts 126°
2026-05-06 00:17 -22.77446 -43.32111 1319 ft 164 kts 125°
2026-05-06 00:18 -22.78100 -43.31123 1090 ft 158 kts 124°
2026-05-06 00:18 -22.78722 -43.30183 872 ft 154 kts 124°
2026-05-06 00:18 -22.79344 -43.29237 600 ft 155 kts 124°
2026-05-06 00:18 -22.79980 -43.28276 397 ft 154 kts 126°
2026-05-06 00:19 -22.80603 -43.27339 232 ft 156 kts 126°
2026-05-06 00:19 -22.81222 -43.26395 80 ft 148 kts 127°
2026-05-06 00:19 -22.81763 -43.25583 36 ft 105 kts 126°
2026-05-06 00:19 -22.82032 -43.25176 36 ft 30 kts 111°
2026-05-06 00:20 -22.82047 -43.24971 36 ft 23 kts 90°
2026-05-06 00:20 -22.82091 -43.24826 36 ft 21 kts 126°
2026-05-06 00:20 -22.82088 -43.24719 36 ft 10 kts 32°
2026-05-06 00:20 -22.82031 -43.24679 36 ft 10 kts 35°
2026-05-06 00:21 -22.81978 -43.24637 36 ft 10 kts 38°
2026-05-06 00:21 -22.81912 -43.24616 36 ft 11 kts 357°
2026-05-06 00:21 -22.81839 -43.24577 36 ft 12 kts 38°
2026-05-06 00:21 -22.81770 -43.24522 36 ft 12 kts 34°
2026-05-06 00:22 -22.81705 -43.24473 36 ft 12 kts 40°
2026-05-06 00:22 -22.81678 -43.24421 36 ft 11 kts 59°
2026-05-06 00:22 -22.81694 -43.24355 36 ft 8 kts 128°
2026-05-06 00:22 -22.81707 -43.24338 36 ft 0 kts 129°